DLH273 EDDF-LPMA

Flight info

Callsign DLH273
Flight time N/A
Altitude 35000
Route SOBRA2L/18 SOBRA Y180 DIK UN857 TOLVU DCT RAPOR DCT GIMER DCT ESTOC UT300 PON UN872 GODIX/N0441F310 UN872 DIDAK/N0450F370 UN872 ERIGA UN741 AZFIC DCT LOTEE DCT AGADO DCT LIDRO
Aircraft A319/M-SDE3FGHIRWY/LB1

Departure

Time N/A
Airport Frankfurt Main Airport (EDDF)

Arrival

Time 2026-05-07 17:51
Airport Cristiano Ronaldo International Airport (LPMA)
Time Latitude Longitude Altitude Speed Heading
2026-05-07 14:27 49.26521 3.28281 35077 ft 419 kts 257°
2026-05-07 14:27 49.25879 3.23929 35075 ft 419 kts 257°
2026-05-07 14:28 49.24579 3.15220 35073 ft 419 kts 257°
2026-05-07 14:28 49.23268 3.06519 35072 ft 419 kts 257°
2026-05-07 14:29 49.21968 2.97881 35072 ft 419 kts 257°
2026-05-07 14:29 49.20658 2.89205 35068 ft 419 kts 257°
2026-05-07 14:30 49.19331 2.80513 35067 ft 419 kts 256°
2026-05-07 14:30 49.17992 2.71843 35064 ft 419 kts 256°
2026-05-07 14:31 49.16652 2.63186 35061 ft 418 kts 256°
2026-05-07 14:31 49.15312 2.54532 35062 ft 418 kts 256°
2026-05-07 14:32 49.13964 2.45867 35059 ft 418 kts 256°
2026-05-07 14:32 49.12742 2.37231 35058 ft 418 kts 262°
2026-05-07 14:33 49.11933 2.28421 35057 ft 419 kts 261°
2026-05-07 14:33 49.11121 2.19597 35054 ft 419 kts 261°
2026-05-07 14:34 49.10293 2.10842 35058 ft 419 kts 261°
2026-05-07 14:34 49.09103 2.02150 35056 ft 418 kts 249°
2026-05-07 14:35 49.06744 1.94052 35055 ft 418 kts 245°
2026-05-07 14:35 49.04337 1.86029 35054 ft 418 kts 245°
2026-05-07 14:36 49.01906 1.77974 35050 ft 418 kts 245°
2026-05-07 14:36 48.99466 1.69932 35041 ft 418 kts 245°
2026-05-07 14:37 48.97021 1.61904 35043 ft 418 kts 245°
2026-05-07 14:37 48.93373 1.49916 35037 ft 418 kts 245°
2026-05-07 14:38 48.90914 1.41896 35042 ft 418 kts 245°
2026-05-07 14:38 48.88447 1.33887 35041 ft 418 kts 245°
2026-05-07 14:39 48.85990 1.25934 35043 ft 418 kts 245°
2026-05-07 14:39 48.83514 1.17941 35044 ft 418 kts 245°
2026-05-07 14:40 48.81033 1.09948 35040 ft 418 kts 245°
2026-05-07 14:40 48.78972 1.03309 35039 ft 418 kts 244°
2026-05-07 14:41 48.76069 0.94028 35037 ft 418 kts 244°
2026-05-07 14:41 48.73897 0.87487 35033 ft 418 kts 239°
2026-05-07 14:42 48.70857 0.79966 35029 ft 418 kts 238°
2026-05-07 14:42 48.67806 0.72431 35029 ft 418 kts 238°
2026-05-07 14:43 48.64780 0.64987 35027 ft 418 kts 238°
2026-05-07 14:43 48.61719 0.57478 35027 ft 418 kts 238°
2026-05-07 14:44 48.58661 0.49986 35029 ft 418 kts 238°
2026-05-07 14:44 48.55594 0.42511 35025 ft 418 kts 238°
2026-05-07 14:45 48.52540 0.35089 35021 ft 418 kts 238°
2026-05-07 14:45 48.49462 0.27625 35017 ft 418 kts 238°
2026-05-07 14:46 48.46389 0.20171 35014 ft 418 kts 238°
2026-05-07 14:46 48.43330 0.12777 35012 ft 418 kts 238°
2026-05-07 14:47 48.40246 0.05346 35014 ft 418 kts 238°
2026-05-07 14:47 48.37153 -0.02074 35012 ft 418 kts 238°
2026-05-07 14:48 48.33912 -0.09336 35013 ft 418 kts 234°
2026-05-07 14:48 48.30399 -0.16315 35013 ft 418 kts 232°
2026-05-07 14:49 48.26846 -0.23240 35012 ft 418 kts 233°
2026-05-07 14:49 48.23346 -0.30151 35016 ft 418 kts 232°
2026-05-07 14:50 48.19808 -0.37088 35018 ft 419 kts 232°
2026-05-07 14:50 48.16262 -0.44010 35022 ft 418 kts 232°
2026-05-07 14:51 48.12715 -0.50921 35024 ft 418 kts 232°
2026-05-07 14:51 48.09174 -0.57816 35026 ft 418 kts 232°
2026-05-07 14:52 48.05643 -0.64662 35026 ft 417 kts 232°
2026-05-07 14:52 48.02093 -0.71525 35026 ft 417 kts 232°
2026-05-07 14:53 47.98542 -0.78392 35026 ft 417 kts 232°
2026-05-07 14:53 47.94990 -0.85223 35027 ft 416 kts 232°
2026-05-07 14:54 47.91434 -0.92051 35023 ft 416 kts 232°
2026-05-07 14:54 47.87903 -0.98826 35016 ft 416 kts 232°
2026-05-07 14:55 47.84342 -1.05626 35010 ft 415 kts 232°
2026-05-07 14:55 47.80804 -1.12359 35003 ft 415 kts 231°
2026-05-07 14:56 47.77237 -1.19128 34998 ft 416 kts 231°
2026-05-07 14:56 47.73664 -1.25903 35000 ft 416 kts 231°
2026-05-07 14:57 47.70099 -1.32670 34999 ft 416 kts 231°
2026-05-07 14:57 47.66521 -1.39434 34997 ft 416 kts 231°
2026-05-07 14:58 47.62925 -1.46184 35002 ft 416 kts 231°
2026-05-07 14:58 47.59325 -1.52904 35002 ft 416 kts 230°
2026-05-07 14:59 47.55539 -1.59328 35000 ft 416 kts 227°
2026-05-07 14:59 47.51599 -1.65622 34995 ft 415 kts 227°
2026-05-07 15:00 47.47710 -1.71885 34989 ft 415 kts 227°
2026-05-07 15:00 47.43841 -1.78221 34987 ft 414 kts 227°
2026-05-07 15:01 47.39984 -1.84560 34986 ft 414 kts 227°
2026-05-07 15:01 47.36109 -1.90856 34989 ft 414 kts 225°
2026-05-07 15:02 47.31511 -1.95916 34991 ft 414 kts 211°
2026-05-07 15:02 47.26589 -2.00315 34989 ft 414 kts 211°
2026-05-07 15:03 47.21682 -2.04701 34989 ft 414 kts 211°
2026-05-07 15:03 47.16749 -2.09098 34989 ft 414 kts 211°
2026-05-07 15:04 47.11816 -2.13500 34992 ft 414 kts 211°
2026-05-07 15:04 47.06912 -2.17848 34994 ft 414 kts 211°
2026-05-07 15:05 47.01969 -2.22218 34995 ft 414 kts 211°
2026-05-07 15:05 46.97030 -2.26580 35001 ft 414 kts 211°
2026-05-07 15:06 46.92084 -2.30935 34998 ft 414 kts 211°
2026-05-07 15:06 46.87309 -2.35609 34995 ft 414 kts 221°
2026-05-07 15:07 46.83723 -2.42077 34999 ft 415 kts 239°
2026-05-07 15:07 46.80853 -2.49405 35002 ft 415 kts 238°
2026-05-07 15:08 46.77963 -2.56705 35002 ft 415 kts 238°
2026-05-07 15:08 46.75068 -2.64003 34999 ft 416 kts 238°
2026-05-07 15:09 46.72159 -2.71301 35005 ft 416 kts 238°
2026-05-07 15:09 46.69254 -2.78587 35002 ft 415 kts 238°
2026-05-07 15:10 46.66358 -2.85825 34996 ft 415 kts 238°
2026-05-07 15:10 46.63445 -2.93109 34995 ft 416 kts 238°
2026-05-07 15:11 46.60533 -3.00381 34992 ft 416 kts 238°
2026-05-07 15:11 46.57600 -3.07635 34984 ft 415 kts 236°
2026-05-07 15:12 46.53870 -3.13997 34987 ft 414 kts 225°
2026-05-07 15:12 46.49862 -3.20017 34981 ft 414 kts 225°
2026-05-07 15:13 46.45886 -3.26011 34988 ft 415 kts 225°
2026-05-07 15:13 46.41877 -3.32043 34987 ft 415 kts 225°
2026-05-07 15:14 46.37859 -3.38065 34987 ft 415 kts 225°
2026-05-07 15:14 46.33837 -3.44081 34978 ft 416 kts 225°
2026-05-07 15:15 46.29806 -3.50092 34985 ft 416 kts 225°
2026-05-07 15:15 46.25801 -3.56044 34990 ft 416 kts 225°
2026-05-07 15:16 46.21766 -3.62030 34983 ft 416 kts 225°
2026-05-07 15:16 46.17727 -3.68025 34982 ft 416 kts 225°
2026-05-07 15:17 46.13681 -3.74003 34984 ft 416 kts 225°
2026-05-07 15:17 46.09628 -3.79960 34981 ft 416 kts 225°
2026-05-07 15:18 46.05575 -3.85923 34977 ft 416 kts 225°
2026-05-07 15:18 46.01516 -3.91884 34976 ft 417 kts 225°
2026-05-07 15:19 45.97470 -3.97817 34971 ft 417 kts 225°
2026-05-07 15:19 45.93393 -4.03764 34970 ft 417 kts 225°
2026-05-07 15:20 45.89311 -4.09713 34971 ft 417 kts 225°
2026-05-07 15:20 45.85228 -4.15655 34967 ft 418 kts 225°
2026-05-07 15:21 45.81140 -4.21593 34970 ft 418 kts 225°
2026-05-07 15:21 45.77070 -4.27490 34965 ft 418 kts 225°
2026-05-07 15:22 45.72966 -4.33404 34962 ft 418 kts 225°
2026-05-07 15:22 45.68868 -4.39315 34963 ft 418 kts 225°
2026-05-07 15:23 45.64760 -4.45231 34959 ft 418 kts 225°
2026-05-07 15:23 45.60675 -4.51097 34954 ft 419 kts 225°
2026-05-07 15:24 45.56554 -4.57003 34953 ft 419 kts 225°
2026-05-07 15:24 45.52429 -4.62896 34954 ft 420 kts 225°
2026-05-07 15:25 45.48295 -4.68786 34949 ft 420 kts 226°
2026-05-07 15:25 45.44153 -4.74676 34952 ft 421 kts 226°
2026-05-07 15:26 45.40699 -4.79581 34955 ft 421 kts 226°
2026-05-07 15:26 45.36543 -4.85478 34949 ft 422 kts 226°
2026-05-07 15:27 45.32369 -4.91377 34951 ft 422 kts 226°
2026-05-07 15:27 45.28219 -4.97231 34945 ft 422 kts 226°
2026-05-07 15:28 45.24037 -5.03118 34940 ft 423 kts 226°
2026-05-07 15:28 45.19850 -5.09002 34937 ft 423 kts 226°
2026-05-07 15:29 45.15685 -5.14842 34936 ft 424 kts 226°
2026-05-07 15:29 45.11484 -5.20709 34935 ft 424 kts 226°
2026-05-07 15:30 45.07274 -5.26580 34932 ft 425 kts 226°
2026-05-07 15:30 45.03063 -5.32446 34928 ft 425 kts 226°
2026-05-07 15:31 44.98834 -5.38311 34929 ft 426 kts 226°
2026-05-07 15:31 44.94604 -5.44176 34924 ft 427 kts 226°
2026-05-07 15:32 44.90365 -5.50054 34928 ft 427 kts 227°
2026-05-07 15:32 44.86140 -5.55887 34927 ft 428 kts 226°
2026-05-07 15:33 44.81876 -5.61750 34926 ft 428 kts 226°
2026-05-07 15:33 44.77612 -5.67603 34921 ft 428 kts 227°
2026-05-07 15:34 44.73349 -5.73454 34924 ft 428 kts 227°
2026-05-07 15:34 44.69083 -5.79293 34920 ft 428 kts 227°
2026-05-07 15:35 44.64799 -5.85051 34918 ft 429 kts 225°
2026-05-07 15:35 44.60270 -5.90512 34915 ft 430 kts 222°
2026-05-07 15:36 44.55620 -5.95810 34912 ft 430 kts 222°
2026-05-07 15:36 44.50995 -6.01129 34917 ft 430 kts 223°
2026-05-07 15:37 44.46406 -6.06494 34912 ft 429 kts 223°
2026-05-07 15:37 44.41828 -6.11872 34913 ft 429 kts 223°
2026-05-07 15:38 44.37250 -6.17220 34908 ft 429 kts 223°
2026-05-07 15:38 44.32690 -6.22526 34907 ft 429 kts 223°
2026-05-07 15:39 44.28101 -6.27840 34904 ft 428 kts 223°
2026-05-07 15:39 44.23503 -6.33150 34903 ft 428 kts 223°
2026-05-07 15:40 44.18915 -6.38457 34902 ft 428 kts 223°
2026-05-07 15:40 44.14359 -6.43717 34900 ft 428 kts 223°
2026-05-07 15:41 44.09776 -6.48999 34903 ft 428 kts 223°
2026-05-07 15:41 44.05178 -6.54271 34901 ft 427 kts 223°
2026-05-07 15:42 44.00584 -6.59524 34900 ft 427 kts 223°
2026-05-07 15:42 43.95993 -6.64763 34902 ft 427 kts 223°
2026-05-07 15:43 43.91395 -6.70020 34892 ft 427 kts 223°
2026-05-07 15:43 43.86834 -6.75216 34892 ft 427 kts 223°
2026-05-07 15:44 43.82240 -6.80438 34894 ft 427 kts 223°
2026-05-07 15:44 43.77639 -6.85654 34891 ft 427 kts 223°
2026-05-07 15:45 43.73048 -6.90856 34890 ft 427 kts 223°
2026-05-07 15:45 43.68448 -6.96057 34885 ft 427 kts 223°
2026-05-07 15:46 43.61569 -7.03801 34881 ft 427 kts 223°
2026-05-07 15:47 43.56967 -7.08971 34879 ft 427 kts 223°
2026-05-07 15:47 43.52360 -7.14141 34879 ft 427 kts 223°
2026-05-07 15:48 43.47755 -7.19298 34873 ft 426 kts 223°
2026-05-07 15:48 43.43137 -7.24450 34874 ft 426 kts 224°
2026-05-07 15:49 43.38563 -7.29547 34875 ft 426 kts 224°
2026-05-07 15:49 43.33960 -7.34674 34875 ft 426 kts 224°
2026-05-07 15:50 43.29357 -7.39779 34877 ft 425 kts 224°
2026-05-07 15:50 43.24754 -7.44868 34880 ft 425 kts 224°
2026-05-07 15:51 43.20141 -7.49972 34880 ft 424 kts 224°
2026-05-07 15:51 43.15542 -7.55052 34880 ft 424 kts 224°
2026-05-07 15:52 43.10950 -7.60109 34882 ft 423 kts 224°
2026-05-07 15:52 43.06396 -7.65126 34875 ft 422 kts 224°
2026-05-07 15:53 43.01818 -7.70153 34874 ft 422 kts 224°
2026-05-07 15:53 42.97238 -7.75162 34882 ft 421 kts 224°
2026-05-07 15:54 42.92667 -7.80157 34883 ft 420 kts 224°
2026-05-07 15:54 42.88129 -7.85106 34881 ft 420 kts 224°
2026-05-07 15:55 42.83568 -7.90063 34883 ft 419 kts 224°
2026-05-07 15:55 42.79013 -7.95009 34882 ft 418 kts 224°
2026-05-07 15:56 42.74466 -7.99941 34878 ft 418 kts 224°
2026-05-07 15:56 42.69923 -8.04864 34880 ft 417 kts 224°
2026-05-07 15:57 42.65381 -8.09768 34881 ft 416 kts 224°
2026-05-07 15:57 42.60842 -8.14648 34881 ft 415 kts 224°
2026-05-07 15:58 42.56348 -8.19480 34877 ft 414 kts 224°
2026-05-07 15:58 42.51837 -8.24330 34878 ft 413 kts 224°
2026-05-07 15:59 42.47331 -8.29166 34881 ft 412 kts 224°
2026-05-07 15:59 42.42827 -8.33975 34883 ft 411 kts 224°
2026-05-07 16:00 42.38340 -8.38770 34889 ft 411 kts 224°
2026-05-07 16:00 42.33849 -8.43561 34893 ft 410 kts 224°
2026-05-07 16:01 42.29363 -8.48332 34887 ft 410 kts 224°
2026-05-07 16:01 42.24879 -8.53093 34889 ft 410 kts 224°
2026-05-07 16:02 42.20427 -8.57807 34900 ft 409 kts 223°
2026-05-07 16:02 42.15942 -8.62548 34891 ft 409 kts 223°
2026-05-07 16:03 42.11464 -8.67266 34890 ft 408 kts 223°
2026-05-07 16:03 42.06995 -8.71975 34885 ft 408 kts 223°
2026-05-07 16:04 42.02522 -8.76694 34888 ft 408 kts 223°
2026-05-07 16:04 41.98082 -8.81366 34887 ft 408 kts 223°
2026-05-07 16:05 41.93609 -8.86056 34890 ft 407 kts 223°
2026-05-07 16:05 41.89132 -8.90727 34886 ft 407 kts 223°
2026-05-07 16:06 41.84632 -8.95341 34889 ft 407 kts 221°
2026-05-07 16:06 41.80058 -8.99823 34897 ft 407 kts 220°
2026-05-07 16:07 41.75502 -9.04254 34903 ft 406 kts 220°
2026-05-07 16:07 41.70943 -9.08716 34903 ft 405 kts 221°
2026-05-07 16:08 41.66394 -9.13181 34902 ft 405 kts 220°
2026-05-07 16:08 41.61854 -9.17627 34903 ft 404 kts 220°
2026-05-07 16:09 41.57314 -9.22056 34902 ft 404 kts 220°
2026-05-07 16:09 41.52803 -9.26445 34898 ft 403 kts 220°
2026-05-07 16:10 41.48271 -9.30851 34899 ft 403 kts 220°
2026-05-07 16:10 41.43743 -9.35245 34894 ft 403 kts 220°
2026-05-07 16:11 41.39210 -9.39636 34901 ft 402 kts 220°
2026-05-07 16:11 41.34679 -9.44020 34898 ft 402 kts 220°
2026-05-07 16:12 41.30143 -9.48394 34900 ft 402 kts 219°
2026-05-07 16:12 41.25641 -9.52730 34898 ft 402 kts 220°
2026-05-07 16:13 41.21111 -9.57094 34911 ft 402 kts 219°
2026-05-07 16:13 41.17342 -9.60708 34906 ft 402 kts 219°
2026-05-07 16:14 41.12805 -9.65060 34904 ft 402 kts 219°
2026-05-07 16:14 41.08272 -9.69406 34906 ft 402 kts 219°
2026-05-07 16:15 41.03731 -9.73742 34909 ft 402 kts 219°
2026-05-07 16:15 40.99184 -9.78075 34911 ft 402 kts 219°
2026-05-07 16:16 40.94635 -9.82409 34910 ft 402 kts 219°
2026-05-07 16:16 40.90115 -9.86700 34910 ft 402 kts 219°
2026-05-07 16:17 40.85570 -9.91013 34912 ft 402 kts 219°
2026-05-07 16:17 40.81026 -9.95321 34916 ft 402 kts 219°
2026-05-07 16:18 40.76486 -9.99623 34916 ft 401 kts 219°
2026-05-07 16:18 40.71948 -10.03912 34919 ft 401 kts 219°
2026-05-07 16:19 40.67402 -10.08186 34917 ft 401 kts 219°
2026-05-07 16:19 40.62853 -10.12456 34919 ft 401 kts 219°
2026-05-07 16:20 40.58332 -10.16706 35004 ft 405 kts 219°
2026-05-07 16:20 40.56034 -10.18865 35256 ft 407 kts 219°
2026-05-07 16:20 40.53728 -10.21031 35541 ft 407 kts 219°
2026-05-07 16:20 40.51425 -10.23195 35835 ft 407 kts 219°
2026-05-07 16:21 40.49118 -10.25356 36132 ft 406 kts 219°
2026-05-07 16:21 40.46815 -10.27511 36410 ft 407 kts 219°
2026-05-07 16:21 40.44508 -10.29663 36671 ft 407 kts 219°
2026-05-07 16:21 40.42199 -10.31814 36885 ft 407 kts 219°
2026-05-07 16:22 40.39886 -10.33968 36928 ft 407 kts 219°
2026-05-07 16:22 40.35265 -10.38265 36930 ft 407 kts 219°
2026-05-07 16:23 40.30651 -10.42554 36936 ft 407 kts 219°
2026-05-07 16:23 40.26024 -10.46844 36935 ft 408 kts 219°
2026-05-07 16:24 40.21390 -10.51130 36931 ft 407 kts 219°
2026-05-07 16:24 40.16770 -10.55404 36932 ft 407 kts 219°
2026-05-07 16:25 40.12183 -10.59656 36929 ft 406 kts 219°
2026-05-07 16:25 40.07562 -10.63918 36933 ft 406 kts 218°
2026-05-07 16:26 40.02941 -10.68168 36930 ft 406 kts 218°
2026-05-07 16:26 39.98318 -10.72411 36928 ft 406 kts 218°
2026-05-07 16:27 39.93688 -10.76656 36928 ft 407 kts 218°
2026-05-07 16:27 39.89055 -10.80897 36928 ft 407 kts 218°
2026-05-07 16:28 39.84424 -10.85140 36927 ft 407 kts 218°
2026-05-07 16:28 39.79783 -10.89377 36931 ft 407 kts 218°
2026-05-07 16:29 39.75140 -10.93593 36933 ft 407 kts 218°
2026-05-07 16:29 39.70518 -10.97781 36934 ft 407 kts 218°
2026-05-07 16:30 39.65860 -11.02012 36934 ft 407 kts 218°
2026-05-07 16:30 39.61222 -11.06235 36936 ft 407 kts 218°
2026-05-07 16:31 39.56604 -11.10427 36935 ft 407 kts 218°
2026-05-07 16:31 39.51943 -11.14628 36943 ft 408 kts 218°
2026-05-07 16:32 39.47283 -11.18819 36944 ft 407 kts 218°
2026-05-07 16:32 39.42626 -11.23007 36936 ft 408 kts 218°
2026-05-07 16:33 39.37972 -11.27200 36941 ft 408 kts 218°
2026-05-07 16:33 39.33338 -11.31365 36940 ft 409 kts 218°
2026-05-07 16:34 39.28657 -11.35560 36940 ft 409 kts 218°
2026-05-07 16:34 39.23971 -11.39741 36939 ft 410 kts 218°
2026-05-07 16:35 39.19281 -11.43932 36937 ft 410 kts 218°
2026-05-07 16:35 39.14576 -11.48125 36940 ft 411 kts 218°
2026-05-07 16:36 39.09895 -11.52289 36940 ft 411 kts 218°
2026-05-07 16:36 39.05182 -11.56469 36940 ft 411 kts 218°
2026-05-07 16:37 39.00463 -11.60662 36935 ft 412 kts 218°
2026-05-07 16:37 38.95739 -11.64850 36937 ft 413 kts 218°
2026-05-07 16:38 38.91007 -11.69041 36940 ft 413 kts 218°
2026-05-07 16:38 38.86260 -11.73229 36934 ft 414 kts 218°
2026-05-07 16:39 38.81510 -11.77413 36945 ft 414 kts 218°
2026-05-07 16:39 38.76746 -11.81592 36945 ft 415 kts 218°
2026-05-07 16:40 38.72004 -11.85757 36947 ft 415 kts 218°
2026-05-07 16:40 38.67235 -11.89950 36931 ft 416 kts 218°
2026-05-07 16:41 38.62459 -11.94174 36927 ft 417 kts 218°
2026-05-07 16:41 38.57673 -11.98399 36929 ft 419 kts 218°
2026-05-07 16:42 38.52874 -12.02629 36925 ft 420 kts 218°
2026-05-07 16:42 38.48048 -12.06872 36925 ft 421 kts 218°
2026-05-07 16:43 38.43250 -12.11085 36928 ft 422 kts 218°
2026-05-07 16:43 38.38403 -12.15326 36928 ft 423 kts 218°
2026-05-07 16:44 38.33537 -12.19556 36932 ft 424 kts 217°
2026-05-07 16:44 38.28583 -12.23670 36939 ft 425 kts 217°
2026-05-07 16:45 38.23652 -12.27810 36950 ft 424 kts 218°
2026-05-07 16:45 38.18753 -12.32030 36947 ft 425 kts 218°
2026-05-07 16:46 38.13902 -12.36241 36943 ft 425 kts 218°
2026-05-07 16:46 38.09004 -12.40469 36940 ft 426 kts 218°
2026-05-07 16:47 38.04086 -12.44690 36940 ft 426 kts 218°
2026-05-07 16:47 37.99163 -12.48900 36937 ft 427 kts 218°
2026-05-07 16:48 37.94265 -12.53083 36936 ft 427 kts 218°
2026-05-07 16:48 37.89328 -12.57299 36932 ft 428 kts 218°
2026-05-07 16:49 37.84371 -12.61536 36936 ft 429 kts 218°
2026-05-07 16:49 37.79434 -12.65730 36935 ft 430 kts 218°
2026-05-07 16:50 37.74460 -12.69954 36939 ft 431 kts 218°
2026-05-07 16:50 37.69473 -12.74184 36936 ft 432 kts 218°
2026-05-07 16:51 37.64479 -12.78408 36942 ft 432 kts 219°
2026-05-07 16:51 37.59479 -12.82641 36938 ft 433 kts 219°
2026-05-07 16:52 37.54474 -12.86869 36940 ft 433 kts 219°
2026-05-07 16:52 37.49489 -12.91074 36937 ft 434 kts 219°
2026-05-07 16:53 37.44454 -12.95303 36936 ft 435 kts 219°
2026-05-07 16:53 37.39420 -12.99536 36936 ft 435 kts 219°
2026-05-07 16:54 37.34377 -13.03774 36936 ft 436 kts 219°
2026-05-07 16:54 37.29312 -13.08007 36933 ft 437 kts 219°
2026-05-07 16:55 37.24244 -13.12238 36933 ft 438 kts 219°
2026-05-07 16:55 37.19162 -13.16479 36932 ft 439 kts 219°
2026-05-07 16:56 37.14069 -13.20731 36935 ft 440 kts 219°
2026-05-07 16:56 37.06409 -13.27100 36935 ft 441 kts 219°
2026-05-07 16:57 37.01316 -13.31329 36933 ft 442 kts 219°
2026-05-07 16:57 36.96173 -13.35583 36936 ft 443 kts 219°
2026-05-07 16:58 36.91889 -13.39120 36937 ft 444 kts 220°
2026-05-07 16:58 36.86717 -13.43391 36937 ft 445 kts 220°
2026-05-07 16:59 36.81542 -13.47660 36933 ft 446 kts 220°
2026-05-07 16:59 36.76356 -13.51936 36933 ft 447 kts 220°
2026-05-07 17:00 36.71190 -13.56182 36932 ft 448 kts 220°
2026-05-07 17:00 36.65966 -13.60463 36927 ft 449 kts 220°
2026-05-07 17:01 36.60745 -13.64742 36961 ft 449 kts 220°
2026-05-07 17:01 36.55501 -13.69042 36963 ft 452 kts 220°
2026-05-07 17:02 36.50230 -13.73337 36959 ft 452 kts 220°
2026-05-07 17:02 36.44970 -13.77620 36965 ft 452 kts 220°
2026-05-07 17:03 36.39730 -13.81884 36968 ft 452 kts 220°
2026-05-07 17:03 36.34429 -13.86192 36958 ft 452 kts 220°
2026-05-07 17:04 36.29186 -13.90446 36960 ft 452 kts 220°
2026-05-07 17:04 36.23913 -13.94708 36958 ft 452 kts 220°
2026-05-07 17:05 36.18636 -13.98972 36961 ft 452 kts 220°
2026-05-07 17:05 36.13402 -14.03196 36963 ft 452 kts 220°
2026-05-07 17:06 36.08135 -14.07444 36965 ft 451 kts 220°
2026-05-07 17:06 36.02868 -14.11677 36965 ft 451 kts 220°
2026-05-07 17:07 35.97610 -14.15900 36966 ft 451 kts 220°
2026-05-07 17:07 35.92382 -14.20099 36964 ft 450 kts 220°
2026-05-07 17:08 35.87128 -14.24317 36967 ft 450 kts 219°
2026-05-07 17:08 35.81871 -14.28517 36963 ft 450 kts 219°
2026-05-07 17:09 35.76616 -14.32696 36964 ft 449 kts 219°
2026-05-07 17:09 35.71365 -14.36889 36963 ft 449 kts 219°
2026-05-07 17:10 35.66125 -14.41060 36966 ft 449 kts 219°
2026-05-07 17:10 35.60908 -14.45197 36963 ft 448 kts 219°
2026-05-07 17:11 35.55661 -14.49350 36967 ft 448 kts 219°
2026-05-07 17:11 35.50424 -14.53499 36964 ft 447 kts 219°
2026-05-07 17:12 35.45195 -14.57644 36969 ft 447 kts 219°
2026-05-07 17:12 35.39995 -14.61759 36970 ft 447 kts 219°
2026-05-07 17:13 35.34757 -14.65876 36979 ft 446 kts 219°
2026-05-07 17:13 35.29529 -14.69983 36966 ft 446 kts 219°
2026-05-07 17:14 35.24307 -14.74081 36975 ft 446 kts 219°
2026-05-07 17:14 35.19088 -14.78179 36969 ft 445 kts 219°
2026-05-07 17:15 35.13878 -14.82268 36976 ft 445 kts 219°
2026-05-07 17:15 35.08660 -14.86342 36969 ft 445 kts 218°
2026-05-07 17:16 35.03444 -14.90405 36970 ft 444 kts 218°
2026-05-07 17:16 34.98239 -14.94469 36973 ft 444 kts 219°
2026-05-07 17:17 34.93037 -14.98523 36971 ft 444 kts 218°
2026-05-07 17:17 34.87823 -15.02566 36971 ft 444 kts 218°
2026-05-07 17:18 34.82649 -15.06570 36979 ft 443 kts 218°
2026-05-07 17:18 34.77448 -15.10603 36974 ft 443 kts 218°
2026-05-07 17:19 34.72243 -15.14632 36977 ft 442 kts 218°
2026-05-07 17:19 34.67052 -15.18646 36980 ft 442 kts 218°
2026-05-07 17:20 34.61860 -15.22651 36982 ft 441 kts 218°
2026-05-07 17:20 34.56709 -15.26615 36982 ft 441 kts 218°
2026-05-07 17:21 34.51525 -15.30597 36985 ft 440 kts 218°
2026-05-07 17:21 34.46347 -15.34575 36983 ft 440 kts 218°
2026-05-07 17:22 34.41183 -15.38538 36987 ft 439 kts 218°
2026-05-07 17:22 34.36022 -15.42493 36980 ft 439 kts 218°
2026-05-07 17:23 34.30849 -15.46444 36842 ft 440 kts 218°
2026-05-07 17:23 34.28233 -15.48445 35742 ft 450 kts 217°
2026-05-07 17:23 34.25563 -15.50490 34723 ft 458 kts 217°
2026-05-07 17:24 34.22855 -15.52561 33884 ft 461 kts 216°
2026-05-07 17:24 34.20150 -15.54621 33169 ft 458 kts 216°
2026-05-07 17:24 34.17485 -15.56634 32894 ft 439 kts 216°
2026-05-07 17:24 34.14986 -15.58507 32692 ft 418 kts 217°
2026-05-07 17:25 34.12550 -15.60341 32148 ft 407 kts 217°
2026-05-07 17:25 34.10174 -15.62145 31487 ft 400 kts 217°
2026-05-07 17:25 34.07837 -15.63928 30776 ft 396 kts 217°
2026-05-07 17:25 34.05517 -15.65702 30071 ft 392 kts 218°
2026-05-07 17:26 34.03216 -15.67458 29147 ft 392 kts 218°
2026-05-07 17:26 34.00910 -15.69213 28445 ft 388 kts 217°
2026-05-07 17:26 33.98632 -15.70939 28006 ft 385 kts 217°
2026-05-07 17:26 33.96369 -15.72651 27537 ft 383 kts 217°
2026-05-07 17:27 33.94115 -15.74354 27090 ft 381 kts 217°
2026-05-07 17:27 33.91894 -15.76031 26650 ft 381 kts 217°
2026-05-07 17:27 33.89649 -15.77725 26207 ft 379 kts 217°
2026-05-07 17:27 33.87423 -15.79405 25767 ft 376 kts 217°
2026-05-07 17:28 33.85212 -15.81072 25343 ft 374 kts 217°
2026-05-07 17:28 33.83010 -15.82732 24900 ft 372 kts 217°
2026-05-07 17:28 33.80822 -15.84382 24466 ft 370 kts 217°
2026-05-07 17:28 33.78644 -15.86024 24029 ft 368 kts 217°
2026-05-07 17:29 33.76477 -15.87656 23590 ft 367 kts 217°
2026-05-07 17:29 33.74315 -15.89279 23083 ft 365 kts 217°
2026-05-07 17:29 33.72164 -15.90890 22628 ft 362 kts 217°
2026-05-07 17:29 33.70062 -15.92465 22187 ft 360 kts 217°
2026-05-07 17:30 33.67916 -15.94076 21703 ft 358 kts 217°
2026-05-07 17:30 33.65848 -15.95628 21412 ft 351 kts 217°
2026-05-07 17:30 33.63787 -15.97195 20759 ft 348 kts 218°
2026-05-07 17:30 33.61767 -15.98747 20288 ft 342 kts 218°
2026-05-07 17:31 33.59773 -16.00283 19835 ft 339 kts 218°
2026-05-07 17:31 33.57799 -16.01808 19377 ft 335 kts 218°
2026-05-07 17:31 33.55845 -16.03319 18933 ft 332 kts 218°
2026-05-07 17:31 33.53906 -16.04812 18501 ft 332 kts 218°
2026-05-07 17:32 33.51959 -16.06304 18019 ft 331 kts 218°
2026-05-07 17:32 33.50029 -16.07775 17576 ft 326 kts 218°
2026-05-07 17:32 33.48128 -16.09224 17150 ft 322 kts 218°
2026-05-07 17:32 33.46881 -16.10176 16875 ft 320 kts 218°
2026-05-07 17:33 33.44382 -16.12090 16330 ft 318 kts 218°
2026-05-07 17:33 33.42520 -16.13515 15912 ft 318 kts 218°
2026-05-07 17:33 33.40829 -16.15111 15532 ft 308 kts 235°
2026-05-07 17:33 33.39874 -16.17253 15396 ft 280 kts 260°
2026-05-07 17:34 33.39556 -16.19465 15254 ft 262 kts 266°
2026-05-07 17:34 33.39336 -16.21589 14938 ft 254 kts 266°
2026-05-07 17:34 33.39130 -16.23675 14517 ft 251 kts 266°
2026-05-07 17:34 33.38930 -16.25742 14077 ft 250 kts 266°
2026-05-07 17:35 33.38735 -16.27800 13621 ft 248 kts 266°
2026-05-07 17:35 33.38542 -16.29848 13134 ft 247 kts 266°
2026-05-07 17:35 33.38353 -16.31882 12652 ft 245 kts 266°
2026-05-07 17:35 33.38168 -16.33906 12168 ft 244 kts 266°
2026-05-07 17:36 33.37988 -16.35916 11685 ft 243 kts 266°
2026-05-07 17:36 33.37813 -16.37918 11226 ft 241 kts 266°
2026-05-07 17:36 33.37640 -16.39912 10749 ft 241 kts 266°
2026-05-07 17:36 33.37470 -16.41903 10476 ft 240 kts 266°
2026-05-07 17:37 33.37304 -16.43886 10173 ft 239 kts 266°
2026-05-07 17:37 33.37141 -16.45858 9990 ft 238 kts 266°
2026-05-07 17:37 33.36978 -16.47831 9983 ft 239 kts 266°
2026-05-07 17:37 33.36815 -16.49814 9980 ft 240 kts 266°
2026-05-07 17:38 33.36651 -16.51796 9984 ft 240 kts 266°
2026-05-07 17:38 33.36406 -16.53744 9929 ft 243 kts 254°
2026-05-07 17:38 33.35529 -16.55469 9803 ft 248 kts 227°
2026-05-07 17:38 33.34034 -16.56525 9668 ft 256 kts 199°
2026-05-07 17:39 33.32246 -16.56755 9536 ft 260 kts 186°
2026-05-07 17:39 33.30436 -16.56846 9402 ft 260 kts 186°
2026-05-07 17:39 33.28627 -16.56930 9269 ft 259 kts 186°
2026-05-07 17:39 33.26829 -16.57015 9137 ft 259 kts 186°
2026-05-07 17:40 33.25030 -16.57102 9007 ft 258 kts 186°
2026-05-07 17:40 33.23264 -16.57190 8879 ft 257 kts 186°
2026-05-07 17:40 33.21477 -16.57282 8750 ft 256 kts 186°
2026-05-07 17:40 33.19696 -16.57375 8615 ft 256 kts 186°
2026-05-07 17:41 33.17919 -16.57467 8492 ft 255 kts 186°
2026-05-07 17:41 33.16148 -16.57558 8359 ft 254 kts 186°
2026-05-07 17:41 33.14382 -16.57649 8233 ft 254 kts 186°
2026-05-07 17:41 33.12624 -16.57739 8034 ft 253 kts 186°
2026-05-07 17:42 33.10866 -16.57828 7686 ft 252 kts 186°
2026-05-07 17:42 33.09116 -16.57918 7308 ft 252 kts 186°
2026-05-07 17:42 33.07364 -16.58009 6931 ft 252 kts 186°
2026-05-07 17:42 33.05627 -16.58099 6664 ft 247 kts 186°
2026-05-07 17:43 33.03905 -16.58188 6185 ft 247 kts 186°
2026-05-07 17:43 33.02779 -16.58245 5912 ft 243 kts 186°
2026-05-07 17:43 33.01101 -16.58328 5541 ft 240 kts 186°
2026-05-07 17:43 32.99433 -16.58410 5184 ft 239 kts 185°
2026-05-07 17:44 32.97779 -16.58494 4813 ft 236 kts 185°
2026-05-07 17:44 32.96138 -16.58577 4457 ft 233 kts 185°
2026-05-07 17:44 32.94574 -16.58654 4305 ft 216 kts 185°
2026-05-07 17:44 32.93127 -16.58725 4181 ft 201 kts 185°
2026-05-07 17:45 32.91780 -16.58791 4007 ft 190 kts 185°
2026-05-07 17:45 32.90468 -16.58857 3713 ft 190 kts 186°
2026-05-07 17:45 32.89147 -16.58926 3420 ft 190 kts 185°
2026-05-07 17:45 32.87826 -16.58995 3212 ft 190 kts 185°
2026-05-07 17:46 32.86506 -16.59118 3105 ft 189 kts 193°
2026-05-07 17:46 32.85267 -16.59599 3043 ft 186 kts 207°
2026-05-07 17:46 32.84185 -16.60423 2955 ft 183 kts 223°
2026-05-07 17:46 32.83237 -16.61440 2877 ft 183 kts 224°
2026-05-07 17:47 32.82301 -16.62440 2835 ft 183 kts 224°
2026-05-07 17:47 32.81352 -16.63449 2816 ft 182 kts 224°
2026-05-07 17:47 32.80402 -16.64458 2755 ft 183 kts 224°
2026-05-07 17:47 32.79455 -16.65464 2510 ft 182 kts 224°
2026-05-07 17:48 32.78512 -16.66468 2291 ft 181 kts 224°
2026-05-07 17:48 32.77585 -16.67456 2075 ft 174 kts 223°
2026-05-07 17:48 32.76732 -16.68365 1882 ft 153 kts 224°
2026-05-07 17:48 32.75972 -16.69178 1701 ft 143 kts 225°
2026-05-07 17:49 32.75263 -16.69937 1522 ft 137 kts 226°
2026-05-07 17:49 32.74603 -16.70783 1364 ft 139 kts 236°
2026-05-07 17:49 32.74035 -16.71670 1294 ft 134 kts 237°
2026-05-07 17:49 32.73504 -16.72565 1204 ft 132 kts 237°
2026-05-07 17:50 32.72984 -16.73489 1095 ft 134 kts 238°
2026-05-07 17:50 32.72411 -16.74377 927 ft 137 kts 227°
2026-05-07 17:50 32.71770 -16.75147 713 ft 128 kts 224°
2026-05-07 17:50 32.71124 -16.75886 445 ft 130 kts 224°
2026-05-07 17:51 32.70490 -16.76626 219 ft 125 kts 224°
2026-05-07 17:51 32.69954 -16.77252 199 ft 88 kts 225°
2026-05-07 17:51 32.69639 -16.77622 192 ft 39 kts 225°
2026-05-07 17:51 32.69515 -16.77769 192 ft 23 kts 224°
2026-05-07 17:52 32.69395 -16.77908 174 ft 22 kts 222°
2026-05-07 17:52 32.69306 -16.77954 169 ft 10 kts 131°
2026-05-07 17:52 32.69287 -16.77872 170 ft 10 kts 87°
2026-05-07 17:52 32.69327 -16.77809 171 ft 9 kts 44°
2026-05-07 17:53 32.69370 -16.77757 172 ft 7 kts 46°
2026-05-07 17:53 32.69358 -16.77715 172 ft 7 kts 138°
2026-05-07 17:53 32.69344 -16.77700 172 ft 2 kts 137°
2026-05-07 17:53 32.69335 -16.77690 172 ft 1 kts 138°
2026-05-07 17:54 32.69333 -16.77689 172 ft 0 kts 138°